#timestamp,LO_Frequency,Hit,StdDev 
1586080815.4,286046998.5,N
1586080835.2,286046998.1,N
1586080855.1,286047000.9,N
1586080856.0,286047000.9,N
1586080875.8,286047001.1,N
1586080895.6,286046998.7,N
1586080915.5,286047000.8,N
1586080935.3,286047001.0,N
1586080955.2,286047000.7,N
1586080975.9,286046998.2,N
1586080995.7,286047002.6,N
1586081015.6,286046998.1,N
1586081035.4,286046998.3,N
1586081055.3,286046998.5,N
1586081075.1,286046998.2,N
1586081076.0,286046998.2,N
1586081095.8,286046998.6,N
1586081115.7,286046998.4,N
1586081135.5,286046996.5,N
1586081155.3,286046999.1,N
1586081175.2,286046998.4,N
1586081195.0,286046998.5,N
1586081195.9,286046998.5,N
1586081215.8,286047000.1,N
1586081235.6,286047001.0,N
1586081255.4,286047001.0,N
1586081275.3,286046998.6,N
1586081295.1,286046998.6,N
1586081315.9,286047000.3,N
1586081335.7,286047000.1,N
1586081355.5,286046999.8,N
1586081375.4,286047000.0,N
1586081395.2,286047000.8,N
1586081415.1,286046999.7,N
1586081416.0,286046999.7,N
1586081435.8,286047000.0,N
1586081455.6,286046999.8,N
1586081475.5,286047002.7,N
1586081495.3,286047000.1,N
1586081515.1,286046998.5,N
1586081535.9,286047002.5,N
1586081555.7,286047002.6,N
1586081575.6,286047003.7,N
1586081595.4,286047006.7,Y
1586081615.2,286047007.3,P
1586081635.1,286047004.9,N
1586081636.0,286047004.9,N
1586081655.8,286047005.7,N
1586081675.7,286047010.3,Y
1586081695.5,286047002.2,P
1586081715.3,286047000.5,N
1586081735.2,286046999.7,N
1586081755.0,286047001.6,N
1586081755.9,286047001.6,N
1586081775.8,286047003.1,N
1586081795.6,286047002.6,N
1586081815.4,286047002.0,N
1586081835.3,286047002.6,N
1586081855.1,286047003.4,N
1586081875.8,286047003.2,N
1586081895.7,286047001.8,N
1586081915.5,286047004.4,Y
1586081935.4,286047001.1,P
1586081955.2,286047002.7,P
1586081975.0,286046999.7,N
1586081975.9,286046999.7,N
1586081995.8,286047002.1,N
1586082015.6,286047000.0,N
1586082035.5,286047000.1,N
1586082055.3,286046999.9,N
1586082075.1,286046999.0,N
1586082095.9,286046998.8,N
1586082115.7,286046999.3,N
1586082135.5,286047000.1,N
1586082155.4,286047003.8,Y
1586082175.2,286047003.8,P
1586082195.1,286047004.7,N
1586082196.0,286047004.7,N
1586082215.8,286047005.9,Y
1586082235.6,286047001.6,P
1586082255.5,286047000.2,N
1586082275.3,286047001.1,N
1586082295.2,286046998.6,N
1586082315.9,286046998.8,N
1586082335.7,286047000.6,N
1586082355.6,286046998.7,N
1586082375.4,286046998.2,N
1586082395.2,286046997.6,N
1586082415.1,286046999.6,N
1586082416.0,286046999.6,N
1586082435.8,286047001.2,N
1586082455.7,286047001.1,N
1586082475.5,286047000.6,N
1586082495.3,286047000.2,N
1586082515.2,286047001.2,N
1586082535.0,286047000.4,N
1586082535.9,286047000.4,N
1586082555.8,286047002.7,N
1586082575.6,286046999.9,N
1586082595.4,286046998.9,N
1586082615.3,286046996.1,N
1586082635.1,286046996.2,N
1586082655.9,286046997.1,N
1586082675.7,286046995.3,N
1586082695.5,286046996.7,N
1586082715.4,286046996.6,N
1586082735.2,286046998.4,N
1586082755.0,286046999.2,N
1586082755.9,286046999.2,N
1586082775.8,286046996.0,N
1586082795.6,286046997.4,N
1586082815.5,286046998.7,N
1586082835.3,286046995.0,N
1586082855.1,286046997.4,N
1586082875.9,286046995.6,N
1586082895.7,286046995.5,N
1586082915.6,286046998.0,N
1586082935.4,286046997.3,N
1586082955.2,286046997.3,N
1586082975.1,286046999.0,N
1586082976.0,286046999.0,N
1586082995.8,286046997.6,N
1586083015.7,286046997.0,N
1586083035.5,286047001.2,N
1586083055.3,286047001.0,N
1586083075.2,286046999.4,N
1586083095.0,286046997.0,N
1586083095.9,286046997.0,N
1586083115.8,286046998.2,N
1586083135.6,286046998.7,N
1586083155.4,286047000.1,N
1586083175.3,286047002.7,N
1586083195.1,286046998.3,N
1586083215.8,286046999.4,N
1586083235.7,286046995.8,N
1586083255.5,286046995.6,N
1586083275.4,286046996.3,N
1586083325.2,286046997.6,E
1586083335.2,286046999.3,N
1586083355.9,286047002.0,P
1586083375.7,286047002.6,N
1586083395.6,286047003.9,N
1586083415.4,286047003.2,N
1586083435.2,286047005.2,Y
1586083455.1,286047003.6,P
1586083456.0,286047003.6,P
1586083475.8,286046998.3,N
1586083495.7,286046999.4,N
1586083515.5,286046998.4,N
1586083535.3,286046998.4,N
1586083555.2,286047000.0,N
1586083575.0,286046999.7,N
1586083575.9,286046999.7,N
1586083595.8,286046998.5,N
1586083615.6,286047000.7,N
1586083635.4,286046998.5,N
1586083655.3,286046998.1,N
1586083675.1,286046998.7,N
1586083695.9,286046996.9,N
1586083715.7,286046996.9,N
1586083735.6,286046997.2,N
1586083755.4,286046998.7,N
1586083775.2,286047001.2,N
1586083795.1,286047000.4,N
1586083796.0,286047000.4,N
1586083815.8,286047000.0,N
1586083835.7,286046999.7,N
1586083855.5,286047000.6,N
1586083875.3,286046998.3,N
1586083895.2,286047000.5,N
1586083915.0,286047000.4,N
1586083915.9,286047000.4,N
1586083935.7,286047002.6,N
1586083955.6,286047002.7,N
1586083975.4,286046999.2,N
1586083995.3,286046997.9,N
1586084015.1,286046996.8,N
1586084035.8,286047000.5,N
1586084055.7,286047001.1,N
1586084075.5,286046998.6,N
1586084095.4,286047000.7,N
1586084115.2,286047000.8,N
1586084135.0,286047002.8,N
1586084135.9,286047002.8,N
1586084155.8,286046999.8,N
1586084175.6,286047002.2,N
1586084195.4,286047004.2,N
1586084215.3,286047002.2,N
1586084235.1,286047000.1,N
1586084255.9,286046995.5,N
1586084275.7,286046996.0,N
1586084295.5,286046995.7,N
1586084315.4,286046997.0,N
1586084335.2,286046999.1,N
1586084355.1,286046997.8,N
1586084356.0,286046997.8,N
1586084375.8,286046997.2,N
1586084395.6,286047000.0,N
